Flag for Germany Weather past 2 weeks in Brandenburg an der Havel, Brandenburg, Germany

Now
46 °F

Clear.


Feels Like: 43 °F
Forecast: 44 / 68 °F
Wind: 5 mph from Southwest

Location: Potsdam

Current Time: May 31, 2015 at 1:24:27 AM

Latest Report: May 31, 2015 at 1:00 AM


Visibility: 28 mi

Pressure: 30.03 "Hg

Humidity: 81%

Dew point: 40 °F

Location of Brandenburg an der HavelLocation

Historic Weather in Brandenburg an der Havel — Graph

°F

Brandenburg an der Havel temperature yesterday

Maximum temperature yesterday: 64 °F (at 3:00 PM)
Minimum temperature yesterday: 48 °F (at 7:00 AM)
Average temperature yesterday: 55 °F

Past Weeks' High & Low Weather Summary

 TemperatureHumidityPressure
High73 °F (May 25, 3:00 PM)100% (May 16, 5:00 AM)30.32 "Hg (May 16, 5:00 AM)
Low42 °F (May 16, 6:00 AM)26% (May 25, 3:00 PM)29.59 "Hg (May 19, 4:00 AM)
Average56 °F64%30.01 "Hg
* Reported May 15 11:00 PM — May 30 11:00 PM, Brandenburg an der Havel, Weather by CustomWeather, © 2015

Note: Actual official high and low records may vary slightly from our data, if they occured in-between our weather recording intervals... More about our weather records

Advertising

Brandenburg an der Havel weather history for previous 24 hours

 ConditionsComfort  
Time TempWeatherWind HumidityBarometerVisibility
11:00 PM
Sat, May 30
49 °FPassing clouds.6 mph71%30.01 "Hg28 mi
10:00 PM51 °FPassing clouds.7 mph67%30.00 "Hg28 mi
9:00 PM53 °FPassing clouds.8 mph64%29.98 "Hg31 mi
8:00 PM54 °FPartly sunny.8 mph63%29.96 "Hg31 mi
7:00 PM56 °FScattered clouds.9 mph54%29.93 "Hg31 mi
6:00 PM57 °FScattered clouds.8 mph64%29.92 "Hg31 mi
5:00 PM54 °FPartly sunny.8 mph73%29.91 "Hg31 mi
4:00 PM58 °FSprinkles. Partly sunny.5 mph52%29.88 "Hg31 mi
3:00 PM64 °FScattered clouds.8 mph36%29.85 "Hg31 mi
2:00 PM61 °FScattered clouds.7 mph41%29.85 "Hg31 mi
1:00 PM58 °FSprinkles. Partly sunny.8 mph46%29.85 "Hg31 mi
12:00 PM57 °FPartly sunny.9 mph53%29.84 "Hg31 mi
11:00 AM55 °FPartly sunny.9 mph71%29.84 "Hg28 mi
10:00 AM54 °FPartly sunny.8 mph77%29.83 "Hg22 mi
9:00 AM51 °FPartly sunny.7 mph86%29.82 "Hg16 mi
8:00 AM48 °FOvercast.6 mph97%29.80 "Hg14 mi
7:00 AM48 °FLight rain. Overcast.6 mph95%29.77 "Hg8 mi
6:00 AM51 °FLight rain. Overcast.7 mph76%29.76 "Hg19 mi
5:00 AM55 °FLight rain. Overcast.6 mph77%29.72 "Hg19 mi
4:00 AM55 °FOvercast.6 mph75%29.71 "Hg22 mi
3:00 AM54 °FPassing clouds.6 mph77%29.72 "Hg25 mi
2:00 AM53 °FPassing clouds.5 mph80%29.72 "Hg28 mi
1:00 AM56 °FPassing clouds.3 mph73%29.72 "Hg28 mi
Weather by CustomWeather, © 2015

See weather overviewHow to use our weather pages